Flag for Slovakia Weather past 2 weeks in Bratislava, Slovakia

Now
48 °F

Partly sunny.


Feels Like: 46 °F
Forecast: 39 / 57 °F
Wind: 5 mph from Northwest

Location: Bratislava Ivanka

Current Time: Apr 19, 2015 at 10:44:19 AM

Latest Report: Apr 19, 2015 at 10:00 AM


Visibility: N/A

Pressure: 30.21 "Hg

Humidity: 43%

Dew point: 27 °F

Location of BratislavaLocation

Historic Weather in Bratislava — Graph

°F

Bratislava temperature yesterday

Maximum temperature yesterday: 52 °F (at 3:00 PM)
Minimum temperature yesterday: 41 °F (at 10:30 PM)
Average temperature yesterday: 47 °F

Past Weeks' High & Low Weather Summary

 TemperatureHumidityPressure
High81 °F (Apr 16, 3:00 PM)93% (Apr 10, 6:00 AM)30.45 "Hg (Apr 10, 6:00 AM)
Low32 °F (Apr 6, 6:30 AM)15% (Apr 16, 3:00 PM)29.80 "Hg (Apr 17, 3:00 PM)
Average52 °F54%30.17 "Hg
* Reported Apr 4 9:00 AM — Apr 19 9:30 AM, Bratislava, Weather by CustomWeather, © 2015

Note: Actual official high and low records may vary slightly from our data, if they occured in-between our weather recording intervals... More about our weather records

Advertising

Bratislava weather history for previous 24 hours

 ConditionsComfort  
Time TempWeatherWind HumidityBarometerVisibility
9:30 AM
Sun, Apr 19
46 °FPartly sunny.6 mph50%30.21 "HgN/A
9:00 AM45 °FPartly sunny.7 mph57%30.21 "HgN/A
8:30 AM45 °FPassing clouds.8 mph57%30.21 "HgN/A
8:00 AM46 °FPassing clouds.5 mph53%30.21 "HgN/A
7:30 AM43 °FSunny.3 mph57%30.18 "Hg10 mi
7:00 AM41 °FSunny.3 mph61%30.18 "Hg10 mi
6:30 AM37 °FClear.8 mph70%30.18 "Hg10 mi
6:00 AM37 °FClear.7 mph70%30.18 "Hg10 mi
5:30 AM37 °FClear.7 mph70%30.18 "Hg10 mi
5:00 AM37 °FClear.6 mph70%30.18 "Hg10 mi
4:30 AM39 °FClear.2 mph61%30.18 "Hg10 mi
4:00 AM39 °FClear.3 mph61%30.18 "Hg10 mi
3:30 AM39 °FPassing clouds.3 mph61%30.21 "HgN/A
3:00 AM39 °FPassing clouds.3 mph61%30.21 "HgN/A
2:30 AM41 °FPassing clouds.7 mph57%30.21 "HgN/A
2:00 AM41 °FClear.7 mph57%30.21 "Hg10 mi
1:30 AM41 °FClear.3 mph57%30.21 "Hg10 mi
1:00 AM41 °FClear.6 mph57%30.21 "Hg10 mi
12:30 AM41 °FClear.6 mph57%30.21 "Hg10 mi
12:00 AM39 °FClear.5 mph61%30.21 "Hg10 mi
11:30 PM
Sat, Apr 18
41 °FClear.6 mph57%30.21 "Hg10 mi
11:00 PM41 °FClear.5 mph57%30.21 "Hg10 mi
10:30 PM41 °FClear.5 mph57%30.21 "Hg10 mi
10:00 PM43 °FClear.6 mph53%30.21 "Hg10 mi
9:30 PM43 °FClear.6 mph53%30.21 "Hg10 mi
9:00 PM43 °FClear.3 mph53%30.18 "Hg10 mi
8:30 PM43 °FSunny.5 mph53%30.18 "Hg10 mi
8:00 PM45 °FSunny.10 mph53%30.18 "Hg10 mi
7:30 PM46 °FSunny.14 mph46%30.15 "Hg10 mi
7:00 PM48 °FSunny.15 mph43%30.15 "Hg10 mi
6:30 PM48 °FSunny.18 mph40%30.15 "Hg10 mi
6:00 PM48 °FSunny.18 mph40%30.12 "Hg10 mi
5:30 PM50 °FSunny.17 mph40%30.12 "Hg10 mi
5:00 PM50 °FPassing clouds.16 mph40%30.12 "HgN/A
4:30 PM52 °FSunny.17 mph35%30.12 "Hg10 mi
4:00 PM52 °FSunny.16 mph38%30.12 "Hg10 mi
3:30 PM52 °FSunny.17 mph38%30.12 "Hg10 mi
3:00 PM52 °FSunny.22 mph41%30.12 "Hg10 mi
2:30 PM50 °FSunny.18 mph43%30.12 "Hg10 mi
2:00 PM50 °FSunny.21 mph40%30.12 "Hg10 mi
1:30 PM50 °FScattered clouds.20 mph47%30.09 "HgN/A
1:00 PM50 °FScattered clouds.17 mph50%30.09 "HgN/A
12:30 PM48 °FPassing clouds.16 mph58%30.09 "HgN/A
12:00 PM50 °FSprinkles. Scattered clouds.16 mph54%30.09 "HgN/A
11:30 AM50 °FScattered clouds.18 mph54%30.09 "HgN/A
11:00 AM48 °FSprinkles. Scattered clouds.16 mph58%30.07 "HgN/A
10:30 AM48 °FScattered clouds.12 mph58%30.07 "HgN/A
10:00 AM48 °FPassing clouds.9 mph58%30.07 "HgN/A
Weather by CustomWeather, © 2015

See weather overviewHow to use our weather pages